Homestead AFB, FL

9:18 PM EST on December 09, 2019 (GMT -0500)
Dade County-Homestead Regional

Weather History for KHST - November, 2019

Change the Weather History Date:

Wednesday, November 13, 2019

  Actual Average Record
Temperature  
Mean Temperature 76 °F -  
Max Temperature 84 °F 79 °F 89 °F (1947)
Min Temperature 67 °F 60 °F 45 °F (1968)
Cooling Degree Days 10    
Growing Degree Days 26 (Base 50)    
Moisture  
Dew Point 70 °F    
Average Humidity 86    
Maximum Humidity 95    
Minimum Humidity 56    
Precipitation  
Precipitation 0.18 in - - ()
Sea Level Pressure  
Sea Level Pressure 30.00 in    
Wind  
Wind Speed 7 mph (NE)    
Max Wind Speed 17 mph    
Max Gust Speed 23 mph    
Visibility 9 miles    
Events Rain    
Averages and records for this station are not official NWS values.
T = Trace of Precipitation, MM = Missing Value Source: NWS Daily Summary

Daily Weather History Graph

Daily Weather History Graph

Search for Another Location

Airport or City:

Astronomy

Nov. 13, 2019 Rise Set
Actual Time 6:37 AM EST 5:33 PM EST
Civil Twilight 6:13 AM EST 5:58 PM EST
Nautical Twilight 5:45 AM EST 6:25 PM EST
Astronomical Twilight 5:18 AM EST 6:52 PM EST
Moon 6:39 PM EST (11/13) 7:27 AM EST (11/13)
Length of Visible Light 11h 44m
Length of Day
10h 56m
Full, 99% of the Moon is Illuminated
Nov 13
Full
Nov 19
Last Quarter
Nov 26
New
Dec 4
First Quarter
Dec 12
Full

Hourly Weather History & Observations

Time (EST) Temp. Heat Index Dew Point Humidity Pressure Visibility Wind Dir Wind Speed Gust Speed Precip Events Conditions
12:56 AM 71.1 °F - 66.9 °F 87% 29.93 in 10.0 mi Calm Calm - N/A   Clear
1:56 AM 70.2 °F - 66.4 °F 88% 29.93 in 10.0 mi Calm Calm - N/A   Clear
2:56 AM 69.8 °F - 66.0 °F 88% 29.91 in 10.0 mi WNW 3.5 mph - N/A   Clear
3:56 AM 68.2 °F - 66.0 °F 93% 29.92 in 10.0 mi Calm Calm - N/A   Clear
4:56 AM 67.6 °F - 65.8 °F 94% 29.93 in 10.0 mi Calm Calm - N/A   Clear
5:56 AM 68.4 °F - 64.9 °F 89% 29.94 in 10.0 mi NW 3.5 mph - N/A   Clear
6:56 AM 69.3 °F - 64.9 °F 86% 29.95 in 10.0 mi NNW 5.8 mph - N/A   Clear
8:56 AM 74.8 °F - 68.5 °F 81% 30.00 in 10.0 mi North 10.4 mph - N/A   Clear
9:56 AM 78.4 °F - 69.4 °F 74% 30.01 in 10.0 mi NNW 9.2 mph - N/A   Clear
10:56 AM 81.0 °F 84.1 °F 69.3 °F 67% 30.01 in 10.0 mi North 8.1 mph - N/A   Partly Cloudy
11:56 AM 81.5 °F 83.9 °F 67.1 °F 61% 30.00 in 10.0 mi NNE 8.1 mph - N/A   Scattered Clouds
12:56 PM 81.5 °F 84.6 °F 68.9 °F 65% 29.98 in 10.0 mi North 10.4 mph - N/A   Mostly Cloudy
1:22 PM 82.4 °F 85.4 °F 68.0 °F 62% 29.97 in 10.0 mi NE 9.2 mph - N/A   Light Drizzle
1:31 PM 82.4 °F 85.4 °F 68.0 °F 62% 29.97 in 10.0 mi NE 6.9 mph - N/A   Partly Cloudy
1:35 PM 84.2 °F 87.3 °F 68.0 °F 58% 29.97 in 10.0 mi NE 8.1 mph - N/A   Light Drizzle
1:44 PM 84.2 °F 87.3 °F 68.0 °F 58% 29.96 in 10.0 mi North 9.2 mph - N/A   Partly Cloudy
1:56 PM 84.2 °F 86.8 °F 66.7 °F 56% 29.96 in 10.0 mi NE 6.9 mph - 0.00 in   Clear
2:56 PM 81.1 °F 84.9 °F 70.3 °F 70% 29.96 in 10.0 mi NE 12.7 mph - N/A   Overcast
3:56 PM 77.9 °F - 69.3 °F 75% 29.97 in 10.0 mi NNE 13.8 mph - N/A   Scattered Clouds
5:46 PM 77.0 °F - 71.6 °F 83% 29.98 in 10.0 mi NE 11.5 mph - N/A   Overcast
5:51 PM 77.0 °F - 71.6 °F 83% 29.98 in 10.0 mi NE 9.2 mph - N/A   Overcast
5:56 PM 76.3 °F - 70.0 °F 81% 29.98 in 10.0 mi NE 10.4 mph - N/A   Mostly Cloudy
6:09 PM 77.0 °F - 71.6 °F 83% 29.98 in 10.0 mi NNE 17.3 mph 23.0 mph N/A   Light Drizzle
6:19 PM 75.2 °F - 69.8 °F 83% 29.99 in 6.0 mi NE 12.7 mph - N/A Rain Light Rain
6:39 PM 75.2 °F - 71.6 °F 89% 30.00 in 10.0 mi ENE 13.8 mph - N/A Rain Light Rain
6:49 PM 73.4 °F - 71.6 °F 94% 30.00 in 9.0 mi NE 11.5 mph - N/A Rain Light Rain
6:54 PM 73.4 °F - 69.8 °F 88% 30.00 in 8.0 mi NE 9.2 mph - N/A Rain Light Rain
6:56 PM 73.8 °F - 70.5 °F 90% 30.00 in 8.0 mi ENE 9.2 mph - 0.02 in Rain Light Rain
7:01 PM 73.4 °F - 71.6 °F 94% 30.00 in 10.0 mi NE 10.4 mph - N/A Rain Light Rain
7:03 PM 73.4 °F - 71.6 °F 94% 30.00 in 10.0 mi NE 11.5 mph - N/A   Overcast
7:53 PM 75.2 °F - 71.6 °F 89% 30.01 in 10.0 mi NNW 5.8 mph - N/A   Overcast
7:56 PM 74.5 °F - 71.6 °F 91% 30.01 in 10.0 mi NNW 5.8 mph - 0.00 in   Overcast
8:25 PM 73.4 °F - 71.6 °F 94% 30.02 in 10.0 mi Calm Calm - N/A Rain Light Rain
8:40 PM 73.4 °F - 71.6 °F 94% 30.03 in 9.0 mi North 5.8 mph - N/A Rain Light Rain
8:56 PM 73.6 °F - 70.7 °F 91% 30.03 in 6.0 mi NNE 4.6 mph - 0.05 in Rain Rain
9:07 PM 73.4 °F - 71.6 °F 94% 30.03 in 10.0 mi NNE 4.6 mph - N/A   Overcast
9:12 PM 73.4 °F - 71.6 °F 94% 30.04 in 10.0 mi ENE 6.9 mph - N/A   Overcast
9:13 PM 73.4 °F - 71.6 °F 94% 30.04 in 10.0 mi ENE 6.9 mph - N/A   Light Drizzle
9:18 PM 73.4 °F - 71.6 °F 94% 30.04 in 10.0 mi East 9.2 mph - N/A Rain Light Rain
9:23 PM 73.4 °F - 71.6 °F 94% 30.03 in 9.0 mi East 9.2 mph - N/A Rain Light Rain
9:38 PM 73.4 °F - 71.6 °F 94% 30.03 in 8.0 mi East 9.2 mph - N/A Rain Light Rain
9:43 PM 73.4 °F - 71.6 °F 94% 30.03 in 10.0 mi East 8.1 mph - N/A Rain Light Rain
9:45 PM 73.4 °F - 71.6 °F 94% 30.03 in 10.0 mi East 10.4 mph - N/A   Overcast
9:50 PM 73.4 °F - 71.6 °F 94% 30.03 in 10.0 mi East 13.8 mph - N/A   Overcast
9:56 PM 73.2 °F - 70.7 °F 92% 30.03 in 10.0 mi East 15.0 mph - 0.01 in   Overcast
9:58 PM 73.4 °F - 69.8 °F 88% 30.03 in 10.0 mi East 11.5 mph - N/A   Light Drizzle
10:28 PM 73.4 °F - 71.6 °F 94% 30.03 in 5.0 mi East 11.5 mph - N/A Rain Light Rain
10:43 PM 73.4 °F - 71.6 °F 94% 30.03 in 7.0 mi East 11.5 mph - N/A Rain Light Rain
10:56 PM 73.4 °F - 71.6 °F 94% 30.02 in 7.0 mi ENE 6.9 mph - 0.06 in Rain Light Rain
11:01 PM 73.4 °F - 71.6 °F 94% 30.02 in 10.0 mi ENE 5.8 mph - N/A   Overcast
11:06 PM 73.4 °F - 71.6 °F 94% 30.02 in 10.0 mi East 6.9 mph - N/A   Overcast
11:13 PM 73.4 °F - 71.6 °F 94% 30.02 in 10.0 mi East 16.1 mph 20.7 mph N/A Rain Light Rain
11:18 PM 73.4 °F - 71.6 °F 94% 30.02 in 7.0 mi East 16.1 mph 20.7 mph N/A Rain Light Rain
11:28 PM 73.4 °F - 71.6 °F 94% 30.03 in 3.0 mi East 8.1 mph - N/A Rain Light Rain
11:33 PM 73.4 °F - 71.6 °F 94% 30.03 in 5.0 mi East 9.2 mph - N/A Rain Light Rain
11:38 PM 73.4 °F - 71.6 °F 94% 30.03 in 6.0 mi East 9.2 mph - N/A Rain Light Rain
11:53 PM 73.4 °F - 71.6 °F 94% 30.02 in 7.0 mi ENE 11.5 mph - N/A Rain Light Rain
11:56 PM 73.6 °F - 72.0 °F 95% 30.02 in 6.0 mi ENE 11.5 mph - 0.04 in Rain Light Rain